Volver al catálogo

USA 394

ActivoMilitarVLEO
NORAD 60177·PAYLOAD·🇺🇸 United States

Lanzado Jun 29, 2024 desde Vandenberg Space Force Base

Loading…

Próximos Pases (próximas 24 horas)

TLE

ObsoletoSource: Mike McCants

Época: Aug 24, 2026, 00:47 UTC

1 60177U 24121V   26236.03265889 0.00000000  00000-0  00000-0 0    04
2 60177  70.0170 216.6495 0003000 304.6664  55.3335 14.96713217    08

Sigue USA 394 en tiempo real con AllMySat

Download on the App Store